Location: Chandrammap?lem
(16.9200°N, 81.0051°E)
Time: 13:30:14
(UTC+00:00)

NOSS 0 Rocket - Pass Details

Date: 29 May 2024
Orbit: 934 x 954 km, 70.0° (Epoch: 16 June)

Event Time Altitude Azimuth Distance (km) Brightness Sun altitude
Rises 22:33:20 0° 336° (NNW) 3,620 7.1 -19.7°
Reaches altitude 10° 22:35:53 10° 334° (NNW) 2,675 6.4 -19.2°
Maximum altitude 22:42:01 63° 254° (WSW) 1,057 3.9 -17.9°
Drops below altitude 10° 22:48:09 10° 174° (S) 2,672 6.1 -16.6°
Sets 22:50:42 0° 171° (S) 3,615 6.8 -16.1°
